Hourly Data Report for October 06, 2017

All times are specified in Local Standard Time (LST). Add 1 hour to adjust for Daylight Saving Time where and when it is observed.

FORT PROVIDENCE
NORTHWEST TERRITORIES

61°19'01.000" N
117°36'07.000" W
161.50 m
2201799
71087
WID

Download Data

Hourly Data (October 2017)
Hourly Data Report for October 6, 2017
Temp Definition
°C
Dew Point Temp Definition
°C
Rel Hum Definition
%
Wind Dir Definition
10's deg

Wind Spd Definition
km/h
Visibility Definition
km
Stn Press Definition
kPa
Hmdx Definition


Wind Chill Definition


Weather Definition


TIME
00:00 3.0 1.8 92 6 2   97.44     LegendNANA
01:00 1.3 0.2 92   0   97.38     LegendNANA
02:00 0.1 -1.0 93 7 2   97.32     LegendNANA
03:00 0.0 -0.9 94 21 3   97.25   -1 LegendNANA
04:00 0.7 -0.1 94 6 7   97.16     LegendNANA
05:00 0.8 0.0 94 8 2   97.12     LegendNANA
06:00 1.1 0.2 94 7 5   97.04     LegendNANA
07:00 0.0 -1.0 93 10 1   96.97   0 LegendNANA
08:00 -0.7 -1.6 94 6 3   96.91   -2 LegendNANA
09:00 2.9 2.0 94   0   96.88     LegendNANA
10:00 2.8 1.2 90 4 7   96.87     LegendNANA
11:00 2.7 1.3 91   0   96.84     LegendNANA
12:00 3.9 2.3 89 36 6   96.82     LegendNANA
13:00 4.2 3.0 92 1 4   96.84     LegendNANA
14:00 5.5 4.0 90 4 5   96.87     LegendNANA
15:00 6.1 4.0 87 1 3   96.91     LegendNANA
16:00 6.3 4.3 87 36 5   96.94     LegendNANA
17:00 6.3 4.3 87 34 4   96.97     LegendNANA
18:00 5.7 3.7 87 36 8   97.03     LegendNANA
19:00 5.0 3.4 89 36 6   97.07     LegendNANA
20:00 4.8 2.8 87 34 7   97.10     LegendNANA
21:00 4.5 2.4 86 34 7   97.12     LegendNANA
22:00 4.3 2.4 87 34 6   97.15     LegendNANA
23:00 4.1 2.1 87 35 8   97.18     LegendNANA

Notes on Data Quality.

Legend

  • E = Estimated
  • M = Missing
  • NA = Not Available
  • ‡ = Partner data that is not subject to review by the National Climate Archives
Date modified: